Cannes, France

4:09 AM CET on December 09, 2016 (GMT +0100)
Mandelieu

Weather History for LFMD - February, 2013

Change the Weather History Date:

Tuesday, February 26, 2013

  Actual Average Record
Temperature  
Mean Temperature 44 °F -  
Max Temperature 53 °F 57 °F 60 °F (1998)
Min Temperature 35 °F 43 °F 33 °F (2009)
Degree Days  
Heating Degree Days 21    
Moisture  
Dew Point 32 °F    
Average Humidity 67    
Maximum Humidity 87    
Minimum Humidity 35    
Precipitation  
Precipitation 0.00 in - - ()
Sea Level Pressure  
Sea Level Pressure 30.08 in    
Wind  
Wind Speed 5 mph ()    
Max Wind Speed 12 mph    
Max Gust Speed 16 mph    
Visibility 6.2 miles    
Events Rain , Thunderstorm    
Averages and records for this station are not official NWS values.
T = Trace of Precipitation, MM = Missing Value Source: Averaged Metar Reports

Daily Weather History Graph

Daily Weather History Graph

Search for Another Location

Airport or City:

Trip Planner

Search our weather history database for the weather conditions in past years. The results will help you decide how hot, cold, wet, or windy it might be!

Date:

Astronomy

Feb. 26, 2013 Rise Set
Actual Time 7:13 AM CET 6:17 PM CET
Civil Twilight 6:44 AM CET 6:46 PM CET
Nautical Twilight 6:11 AM CET 7:19 PM CET
Astronomical Twilight 5:38 AM CET 7:52 PM CET
Moon 7:20 PM CET (2/26) 7:05 AM CET (2/26)
Length of Visible Light 12h 01m
Length of Day
11h 03m
Full, 100% of the Moon is Illuminated
Feb 26
Full
Mar 4
Last Quarter
Mar 11
New
Mar 19
First Quarter
Mar 27
Full

Hourly Weather History & Observations

Time (CET) Temp. Windchill Dew Point Humidity Pressure Visibility Wind Dir Wind Speed Gust Speed Precip Events Conditions
12:00 AM 35.6 °F 32.8 °F 32.0 °F 87% 30.01 in 6.2 mi North 3.5 mph - N/A   Mostly Cloudy
12:30 AM 35.6 °F 30.7 °F 32.0 °F 87% 30.04 in 6.2 mi North 5.8 mph - N/A   Unknown
1:00 AM 35.6 °F 30.7 °F 32.0 °F 87% 30.04 in 6.2 mi North 5.8 mph - N/A   Mostly Cloudy
1:30 AM 37.4 °F 34.9 °F 32.0 °F 81% 30.04 in 6.2 mi NNW 3.5 mph - N/A   Overcast
2:00 AM 37.4 °F 33.8 °F 32.0 °F 81% 30.04 in 6.2 mi North 4.6 mph - N/A   Overcast
2:30 AM 37.4 °F 33.8 °F 30.2 °F 75% 30.04 in 6.2 mi North 4.6 mph - N/A   Overcast
3:00 AM 37.4 °F 33.8 °F 30.2 °F 75% 30.04 in 6.2 mi North 4.6 mph - N/A   Overcast
3:30 AM 35.6 °F 32.8 °F 30.2 °F 81% 30.04 in 6.2 mi NNW 3.5 mph - N/A   Overcast
4:00 AM 35.6 °F 31.7 °F 30.2 °F 81% 30.04 in 6.2 mi NNW 4.6 mph - N/A   Mostly Cloudy
4:30 AM 35.6 °F 32.8 °F 30.2 °F 81% 30.04 in 6.2 mi North 3.5 mph - N/A   Overcast
5:00 AM 35.6 °F 31.7 °F 30.2 °F 81% 30.04 in 6.2 mi North 4.6 mph - N/A   Mostly Cloudy
5:30 AM 37.4 °F 34.9 °F 30.2 °F 75% 30.04 in 6.2 mi North 3.5 mph - N/A   Mostly Cloudy
6:00 AM 37.4 °F 32.8 °F 30.2 °F 75% 30.04 in 6.2 mi North 5.8 mph - N/A   Overcast
6:30 AM 37.4 °F 32.8 °F 30.2 °F 75% 30.04 in 6.2 mi North 5.8 mph - N/A   Overcast
7:00 AM 37.4 °F 32.8 °F 30.2 °F 75% 30.04 in 6.2 mi North 5.8 mph - N/A   Mostly Cloudy
7:30 AM 39.2 °F 35.9 °F 32.0 °F 75% 30.04 in 6.2 mi North 4.6 mph - N/A Rain Light Rain
8:00 AM 44.6 °F 40.7 °F 32.0 °F 61% 30.06 in 6.2 mi NE 6.9 mph - N/A   Overcast
8:30 AM 44.6 °F 42.2 °F 33.8 °F 66% 30.09 in 6.2 mi Variable 4.6 mph 16.1 mph N/A Rain Light Rain
9:00 AM 44.6 °F 43.1 °F 33.8 °F 66% 30.09 in 6.2 mi Variable 3.5 mph - N/A Rain Light Rain
9:30 AM 42.8 °F 41.1 °F 35.6 °F 76% 30.09 in 6.2 mi Variable 3.5 mph - N/A Rain Rain
10:00 AM 44.6 °F - 33.8 °F 66% 30.09 in 6.2 mi Variable 1.2 mph - N/A Thunderstorm Overcast
10:30 AM 42.8 °F 41.1 °F 35.6 °F 76% 30.09 in 6.2 mi NNE 3.5 mph - N/A Rain Light Rain
11:00 AM 46.4 °F 44.3 °F 33.8 °F 62% 30.09 in 6.2 mi Variable 4.6 mph - N/A   Mostly Cloudy
11:30 AM 48.2 °F - 35.6 °F 62% 30.09 in 6.2 mi North 5.8 mph - N/A   Mostly Cloudy
12:00 PM 51.8 °F - 33.8 °F 50% 30.09 in 6.2 mi NNE 6.9 mph - N/A   Mostly Cloudy
12:30 PM 51.8 °F - 30.2 °F 44% 30.09 in 6.2 mi ENE 9.2 mph - N/A   Mostly Cloudy
1:00 PM 53.6 °F - 30.2 °F 41% 30.09 in 6.2 mi NE 9.2 mph - N/A   Mostly Cloudy
1:30 PM 53.6 °F - 28.4 °F 38% 30.06 in 6.2 mi NE 9.2 mph - N/A   Scattered Clouds
2:00 PM 53.6 °F - 26.6 °F 35% 30.06 in 6.2 mi East 11.5 mph - N/A   Unknown
2:30 PM 51.8 °F - 30.2 °F 44% 30.06 in 6.2 mi East 10.4 mph - N/A   Mostly Cloudy
3:00 PM 51.8 °F - 30.2 °F 44% 30.06 in 6.2 mi East 6.9 mph - N/A   Unknown
3:30 PM 51.8 °F - 32.0 °F 47% 30.06 in 6.2 mi East 6.9 mph - N/A   Overcast
4:00 PM 53.6 °F - 32.0 °F 44% 30.06 in 6.2 mi ESE 9.2 mph - N/A   Overcast
4:30 PM 51.8 °F - 32.0 °F 47% 30.09 in 6.2 mi East 8.1 mph - N/A   Unknown
5:00 PM 51.8 °F - 32.0 °F 47% 30.09 in 6.2 mi East 4.6 mph - N/A   Mostly Cloudy
5:30 PM 50.0 °F - 32.0 °F 50% 30.09 in 6.2 mi Variable 3.5 mph - N/A   Mostly Cloudy
6:00 PM 50.0 °F - 32.0 °F 50% 30.09 in 6.2 mi NE 3.5 mph - N/A   Partly Cloudy
6:30 PM 46.4 °F 45.2 °F 33.8 °F 62% 30.12 in 6.2 mi North 3.5 mph - N/A   Mostly Cloudy
7:00 PM 46.4 °F - 33.8 °F 62% 30.12 in 6.2 mi Variable 2.3 mph - N/A   Overcast
7:30 PM 44.6 °F 43.1 °F 35.6 °F 71% 30.12 in 6.2 mi NNE 3.5 mph - N/A   Overcast
8:00 PM 44.6 °F 42.2 °F 35.6 °F 71% 30.12 in 6.2 mi North 4.6 mph - N/A   Overcast
8:30 PM 44.6 °F 42.2 °F 35.6 °F 71% 30.15 in 6.2 mi NNE 4.6 mph - N/A   Overcast
9:00 PM 44.6 °F - 35.6 °F 71% 30.15 in 6.2 mi Variable 2.3 mph - N/A   Overcast
9:30 PM 42.8 °F 41.1 °F 35.6 °F 76% 30.15 in 6.2 mi North 3.5 mph - N/A   Mostly Cloudy
10:00 PM 41.0 °F - 35.6 °F 81% 30.15 in 5.0 mi Variable 2.3 mph - N/A   Mostly Cloudy
10:30 PM 41.0 °F 39.0 °F 35.6 °F 81% 30.15 in 6.2 mi North 3.5 mph - N/A   Partly Cloudy
11:00 PM 39.2 °F 37.0 °F 33.8 °F 81% 30.15 in 5.6 mi Variable 3.5 mph - N/A   Unknown
11:30 PM 37.4 °F 33.8 °F 33.8 °F 87% 30.15 in 6.2 mi North 4.6 mph - N/A   Unknown